Location: Cosy Dell
(34.2789°N, 117.4537°W)
Time: 20:56:35
(UTC+00:00)

CZ-2C R/B - Pass Details

Date: 14 July 2020
Orbit: 502 x 567 km, 97.7° (Epoch: 13 August)

Event Time Altitude Azimuth Distance (km) Brightness Sun altitude
Rises 11:46:12 0° 359° (N) 2,770 6.9 -11.8°
Reaches altitude 10° 11:48:32 10° 349° (N) 1,867 5.9 -11.4°
Maximum altitude 11:52:05 30° 288° (WNW) 1,021 3.9 -10.8°
Enters shadow 11:54:50 14° 233° (SW) 1,576 4.5 -10.4°
